Location: Boise
(43.6140°N, 116.2030°W)
Time: 14:29:17
(UTC-06:00)

Daily predictions for brighter satellites

Satellite Brightness Start Highest point End
(mag) Time Altitude Azimuth Time Altitude Azimuth Time Altitude Azimuth
Cosmos 1937 Rocket 3.9 21:39:59 10° SSW 21:45:04 69° WNW 21:50:14 10° NNE
Meteor 1-29 3.8 21:44:22 10° NNE 21:47:31 30° E 21:50:38 10° SSE
Cosmos 2221 Rocket 4.1 21:43:19 10° N 21:47:33 42° ENE 21:51:47 10° SSE
USA 186 3.1 21:46:53 10° SSW 21:49:23 34° W 21:52:07 10° NNW
GPS 2-04 Rocket1 4.0 21:46:58 10° WSW 21:50:01 23° S 21:52:57 10° SE
Cosmos 1346 Rocket 3.1 21:47:57 10° NNW 21:51:55 73° W 21:55:54 10° S
Lacrosse 5 rocket 0.9 21:50:38 10° SW 21:54:10 64° SE 21:57:46 10° NE
H-2A R/B 3.6 21:52:22 10° ESE 21:56:23 22° ENE 22:00:22 10° NNE
Molniya-1 2.0 21:55:35 10° SSW 21:57:16 51° SE 21:58:48 10° NE
COSMOS 2455 2.8 21:51:17 10° SSW 21:57:17 80° ESE 22:03:19 10° NNE
Helios 1A 3.0 21:53:47 10° SSE 21:57:57 81° ENE 22:02:11 10° NNW
ATLAS 5 CENTAUR R/B 2.8 21:52:22 10° NNW 21:58:09 54° NE 22:04:25 10° SE
Aureole 3 2.9 22:00:33 10° SSE 22:03:24 43° E 22:06:18 10° NNE
Cosmos 1939 Rocket 3.4 22:02:06 10° S 22:06:11 61° W 22:10:17 10° NNW
ISS -3.6 22:03:41 10° WSW 22:06:55 72° NNW 22:10:10 10° NE
Cosmos 1408 3.1 22:03:56 10° SSE 22:07:27 42° E 22:11:00 10° NNE
Cosmos 1634 Rocket 4.1 22:02:07 10° N 22:08:26 88° W 22:14:46 10° S
ERS-1 Rocket 3.2 22:04:01 10° SSE 22:08:55 56° ENE 22:13:51 10° N
Tiangong 2 3.2 22:09:22 10° WSW 22:11:32 17° SSW 22:13:42 10° SSE
Meteor 1-27 Rocket 4.3 22:09:42 10° N 22:15:10 42° ENE 22:19:49 13° SE
ARGOS 3.6 22:10:23 11° SE 22:15:13 45° ENE 22:20:18 10° N
CZ-4B DEB 2.6 22:13:52 10° S 22:16:47 76° W 22:19:42 10° NNW
Meteor 1-10 Rocket 4.4 22:10:56 10° N 22:16:54 73° ENE 22:22:46 10° SSE
Cosmos 1048 Rocket 4.1 22:14:02 10° NNW 22:19:22 70° ENE 22:24:01 13° SSE
Terra 3.8 22:16:43 10° E 22:19:26 15° ENE 22:22:10 10° NNE
Resurs 01 Rocket 4.2 22:16:32 10° SW 22:19:47 20° W 22:23:03 10° NW
Meteor 2-6 Rocket 4.4 22:15:41 10° N 22:21:39 73° ENE 22:27:36 10° SSE
Cosmos 1825 2.1 22:21:27 10° S 22:25:12 67° E 22:28:58 10° NNE
Okean 1-7 3.3 22:23:58 10° NNW 22:28:23 72° W 22:32:44 10° S
USA 215 3.4 22:25:19 14° ESE 22:31:07 75° NE 22:37:41 10° NW
Cosmos 1782 2.9 22:27:40 10° NNW 22:31:40 76° W 22:35:30 11° S
SPOT 5 3.2 22:36:06 17° SSE 22:40:14 63° ENE 22:45:27 10° N
Cosmos 2279 Rocket 4.1 22:34:38 10° N 22:40:55 84° W 22:47:09 10° S
Cosmos 2251 Rocket 4.4 22:40:28 10° N 22:45:14 34° ENE 22:48:10 20° ESE
Cosmos 372 Rocket 4.0 22:40:42 10° SSW 22:45:49 86° WNW 22:50:57 10° NNE
MetOp-A 4.2 22:42:39 13° S 22:47:26 78° WSW 22:52:48 10° NNW
Cosmos 2227 Rocket 4.3 22:44:27 10° N 22:47:41 15° NE 22:50:54 10° E
Cosmos 1862 3.2 22:50:16 15° S 22:53:30 83° E 22:57:29 10° N
CENTAUR R/B 2.7 22:47:50 10° SW 22:53:54 77° NW 23:00:53 10° NE
Helios 1B rocket 4.2 22:50:35 10° N 22:54:16 33° WNW 22:57:56 10° SW
SPOT 1/Viking Rocket 3.6 22:51:11 22° SSE 22:54:28 64° ENE 22:59:38 10° N
Cosmos 2219 4.0 22:50:28 10° NNW 22:55:51 40° ENE 22:59:07 21° ESE
Intercosmos 25 Rocket 4.3 22:50:05 10° N 22:57:27 65° ENE 23:00:09 26° SSE
Cosmos 1733 Rocket 3.0 22:54:41 20° S 22:57:37 68° E 23:01:55 10° NNE
Cosmos 1269 Rocket 4.4 22:52:55 10° NNW 22:58:07 59° WSW 23:02:02 18° S
Cosmos 1943 Rocket 2.5 22:52:49 10° SSW 22:58:23 68° WNW 23:03:56 10° NNE
Cosmos 1340 3.3 22:55:01 10° NNW 22:58:43 54° W 23:01:16 19° SSW
Cosmos 1125 Rocket 4.3 22:56:37 10° SW 23:01:44 53° WNW 23:06:52 10° NNE
Lacrosse 4 Rocket 2.0 23:00:30 10° NW 23:04:54 55° WSW 23:07:15 25° S
Cosmos 1346 3.9 23:05:15 10° N 23:07:26 31° ENE 23:07:26 31° ENE
Nimbus 7 Rocket 4.3 23:04:35 10° NNE 23:10:28 68° ESE 23:14:53 18° S
Sich 1 Rocket 4.2 23:11:41 33° SE 23:12:44 39° E 23:16:51 10° NNE
GEOS 3 Rocket 4.1 23:11:26 24° ESE 23:14:18 50° NE 23:19:22 10° NNW
ATLAS CENTAUR R/B 2.1 23:15:11 31° E 23:15:11 31° E 23:18:01 10° NE
Cosmos 405 Rocket 4.1 23:13:52 10° NNE 23:16:52 23° ENE 23:17:08 23° ENE
Gbstr 26 Del rocket 4.3 23:15:01 10° NW 23:19:17 35° NNE 23:22:05 16° ENE
SL-08 RB Rocket 4.2 23:17:13 23° S 23:20:01 57° W 23:24:38 10° NNW
Cosmos 1975 Rocket 4.1 23:17:40 10° NNE 23:21:39 31° ENE 23:22:32 28° E
Cosmos 2369 Rocket 4.3 23:20:03 10° WSW 23:24:51 27° NW 23:29:41 10° N
Meteor 2-20 4.4 23:21:20 22° S 23:25:28 81° E 23:31:35 10° N
Meteor 2-20 Rocket 4.4 23:23:36 28° SSE 23:26:53 65° E 23:32:57 10° NNE
Cosmos 494 Rocket 3.9 23:22:27 10° NNW 23:27:42 88° WSW 23:29:49 37° SSE
Cosmos 1867 3.5 23:24:57 10° NW 23:30:26 85° WSW 23:32:34 38° SSE
CARTOSAT-1 3.5 23:30:29 46° SE 23:31:37 69° ENE 23:35:56 10° N
Lacrosse 5 rocket 3.7 23:30:49 10° WNW 23:33:39 21° NNW 23:36:36 10° NNE
Cosmos 1674 Rocket 3.9 23:29:29 10° NNW 23:33:45 60° W 23:35:25 34° SSW
Cosmos 1378 Rocket 3.5 23:29:33 10° N 23:34:00 74° E 23:35:07 49° SSE
H-2A R/B 2.6 23:32:21 25° S 23:35:24 56° W 23:40:38 10° NNW
Milstar 3 3.9 23:30:07 10° WSW 23:38:14 28° S 23:39:07 27° S
Cosmos 2026 Rocket 4.1 23:36:08 35° SSE 23:38:34 57° E 23:44:41 10° NNE
Landsat 7 4.0 23:39:41 37° S 23:41:28 68° WSW 23:46:13 10° NNW
Cosmos 1441 Rocket 4.4 23:38:04 10° N 23:41:24 29° ENE 23:41:24 29° ENE
Cosmos 2297 Rocket 3.5 23:37:47 10° N 23:42:39 28° NE 23:45:04 21° E
ATLAS 5 CENTAUR R/B 3.6 23:37:24 10° NW 23:42:45 33° WSW 23:45:58 21° SSW
ISS -1.3 23:41:09 10° WNW 23:43:47 22° NNW 23:46:27 10° NE
CZ-4B R/B 4.2 23:39:37 10° NNE 23:44:04 33° E 23:44:06 33° E
Cosmos 2344 3.9 23:37:05 10° SW 23:44:42 70° NW 23:53:28 10° NE
Okean 3 3.6 23:43:39 10° NNW 23:47:49 69° W 23:48:42 51° SSW
H-2A R/B 1.9 23:47:58 58° ESE 23:48:24 63° ENE 23:52:29 10° N
IGS 5A 3.4 23:49:29 59° S 23:50:11 78° WSW 23:54:21 10° NNW
APEX 4.3 23:46:03 10° NNW 23:50:11 34° NE 23:50:39 33° ENE
CZ-2C R/B 4.5 23:51:44 21° E 23:52:55 23° ENE 23:56:43 10° NNE
